EHI
6 4 4 6 5 2 0 0 0 0 0 0 0 0 0 0 0 0 0 0 0 0 1 2 3 3 1 0 0 1 2 2 3 3 3 4 5 5 4 4 3 3 5 5 2 1 1 3 5
3 3 4 5 3 1 0 0 0 0 0 0 0 0 0 0 0 0 0 0 0 0 1 2 3 3 2 0 0 0 1 1 1 1 1 2 3 3 3 3 3 4 6 4 1 1 1 3 4
1 3 4 3 1 0 0 0 0 0 0 0 0 0 0 0 0 0 0 0 1 1 1 2 3 3 1 0 0 0 0 0 0 0 0 1 1 1 1 2 3 4 5 3 1 0 1 2 4
3 4 4 1 0 0 0 0 0 0 0 0 0 1 1 1 0 0 0 0 1 1 1 2 3 2 1 0 0 0 0 1 1 0 0 0 0 0 0 1 2 4 3 1 0 0 0 1 2
7 5 2 0 0 0 0 0 0 0 0 0 0 1 1 1 0 0 0 0 0 0 0 1 2 1 0 0 0 0 1 2 2 1 1 1 0 0 0 2 3 4 3 1 0 0 0 0 1
7 4 1 0 0 0 0 0 0 0 0 0 0 0 0 0 0 0 0 0 0 0 0 0 0 0 0 0 0 0 1 2 3 3 2 2 1 0 0 2 4 3 2 1 0 0 0 0 0
3 2 0 0 0 0 0 0 0 0 0 0 0 0 0 0 0 0 0 0 0 0 0 0 0 0 0 1 1 0 0 1 2 3 3 3 1 1 1 2 3 2 2 1 1 1 1 1 1
1 0 0 0 0 0 0 0 0 0 0 0 0 0 1 1 1 1 0 0 0 0 0 0 0 0 1 1 0 0 0 0 1 2 3 3 2 2 2 2 3 3 2 2 2 2 2 2 2
0 0 0 0 0 0 0 0 0 0 1 1 1 0 1 2 3 2 1 0 0 0 0 0 0 0 0 0 0 0 0 0 1 1 1 2 1 1 1 1 2 2 2 3 3 3 3 3 3
0 0 0 0 0 0 0 0 0 0 1 2 2 2 2 3 3 3 2 1 1 1 1 0 0 0 0 0 0 0 0 0 1 0 0 0 0 0 0 0 1 1 1 2 3 3 3 3 3
0 0 0 0 0 0 0 0 0 0 2 3 3 3 3 3 3 2 1 1 2 2 2 1 0 0 0 0 0 0 0 0 0 0 0 0 0 0 0 1 1 2 2 3 3 3 3 2 2
0 0 0 0 0 0 0 0 1 1 2 2 2 3 3 3 2 1 1 2 3 3 2 1 0 0 0 0 0 0 0 1 1 0 0 0 0 0 1 3 4 4 4 3 3 2 1 1 1
0 0 0 0 0 0 0 1 2 2 1 1 1 3 3 3 1 0 1 2 3 2 1 0 0 0 0 0 0 0 1 2 1 0 0 0 0 1 3 5 6 6 4 2 1 1 0 0 0
0 0 0 0 0 0 0 1 2 2 1 0 2 3 3 3 1 0 1 2 3 1 0 0 0 0 0 0 0 0 1 2 1 0 0 0 1 1 3 5 5 4 2 1 0 0 0 0 0
0 0 0 0 0 0 0 1 2 1 1 1 2 2 3 3 2 1 1 2 2 1 0 0 0 0 0 0 0 0 1 1 0 0 0 1 2 3 3 3 2 1 0 0 0 0 0 0 0
0 0 0 0 0 0 0 1 2 2 2 2 2 2 3 3 2 1 0 1 1 1 2 1 0 0 0 0 0 0 0 0 0 0 1 2 3 3 3 2 1 0 0 0 0 0 0 0 0
0 0 0 0 0 0 0 1 2 2 2 2 3 3 3 2 1 0 0 0 1 3 5 4 2 1 1 1 1 0 0 0 0 0 1 2 3 3 2 1 0 0 0 0 0 0 0 0 0
0 0 0 0 0 0 0 1 2 3 2 2 2 3 2 1 0 0 0 0 1 4 7 8 7 5 3 2 1 0 0 0 0 0 1 2 3 2 1 0 0 0 0 0 0 0 0 0 0
0 0 0 0 0 0 0 1 3 3 2 1 1 2 1 1 1 1 0 0 2 6 9 10 9 8 5 3 1 0 0 0 0 0 0 1 1 1 1 0 0 0 0 0 0 0 0 0 0
0 0 0 0 0 0 0 2 3 3 2 0 1 2 1 2 4 4 4 3 5 7 9 8 8 7 5 2 0 0 0 0 0 0 0 0 0 0 0 0 0 0 0 0 0 0 0 0 0
0 0 0 0 0 0 0 1 3 3 2 1 2 2 2 4 7 9 9 8 7 6 7 6 7 7 5 3 1 0 0 0 0 0 0 0 0 0 0 0 0 0 0 0 1 0 0 0 0
0 0 0 0 0 0 0 1 3 4 4 4 4 4 3 5 9 13 14 12 9 7 6 7 8 9 8 6 2 0 0 0 0 0 0 0 1 2 1 0 0 0 0 0 0 0 1 2 1
0 0 0 0 0 0 0 1 3 5 5 6 6 6 5 5 8 12 14 14 11 8 8 9 12 13 12 9 5 2 0 1 1 1 0 1 2 3 2 1 0 0 0 0 0 1 2 3 4
0 0 0 0 0 0 0 1 3 4 4 5 6 6 4 3 5 9 12 13 13 12 13 15 19 19 15 11 8 4 2 2 2 2 2 2 3 3 3 1 0 1 1 1 1 1 3 4 5
0 0 0 0 0 0 1 2 3 3 3 3 3 3 2 2 4 7 9 12 14 16 19 23 25 24 18 13 11 8 4 2 2 2 2 2 3 4 3 2 1 2 3 3 3 3 3 4 5
0 0 0 0 0 0 1 2 3 2 2 2 2 2 2 2 4 6 8 10 14 18 25 28 28 27 22 17 14 11 8 4 2 1 1 3 4 4 4 3 3 4 4 5 6 5 4 5 5
0 0 0 0 0 0 2 2 2 2 2 3 3 3 3 4 6 8 8 10 13 19 26 30 31 29 24 19 17 15 12 10 6 3 2 4 6 6 4 5 6 7 8 9 9 8 7 7 6
0 0 0 0 0 0 1 2 2 2 3 3 4 6 6 8 10 11 11 12 15 18 23 28 31 29 23 19 17 16 16 16 13 8 5 6 7 8 7 8 9 10 11 13 12 11 11 10 8
0 0 0 0 0 0 1 1 1 2 3 3 4 7 9 11 13 14 15 15 15 16 19 23 26 25 21 18 17 17 18 19 18 15 11 10 10 11 12 13 13 12 12 14 14 13 14 13 11
0 0 0 0 0 0 0 1 1 2 3 4 5 7 10 12 14 16 17 15 14 14 15 19 22 22 19 17 17 17 19 19 19 18 16 14 13 14 16 15 13 12 12 13 14 14 15 15 13
Wind_Speed
12 10 6 6 5 4 11 9 8 7 7 7 6 5 7 8 7 7 6 5 4 5 6 8 8 7 7 8 8 8 8 8 8 8 8 9 10 9 10 12 12 13 15 16 16 16 16 15 15
9 7 7 6 1 7 10 8 9 9 8 5 5 5 7 8 8 7 6 6 5 5 6 8 8 7 7 8 8 8 8 8 8 8 8 9 9 10 12 12 13 13 15 16 15 15 15 15 15
7 7 6 1 8 9 10 8 9 8 6 4 5 6 6 7 6 5 6 6 5 6 6 9 7 7 7 7 8 8 7 8 7 7 8 9 9 10 12 13 13 14 15 15 15 15 15 15 14
6 6 4 3 11 11 8 8 7 7 6 5 5 7 8 7 4 6 7 6 6 6 6 10 7 6 6 7 7 7 7 7 7 7 8 9 9 10 12 13 13 13 14 14 14 14 14 14 13
6 5 1 8 12 9 8 7 4 6 6 5 5 9 9 7 7 8 7 6 6 7 6 9 8 7 6 7 7 7 7 7 9 9 9 9 10 11 12 12 12 12 13 13 13 13 13 12 12
5 3 4 9 11 8 7 5 4 7 7 6 6 8 9 7 8 8 7 6 6 7 7 8 9 7 7 7 7 7 7 8 9 10 10 11 11 11 11 11 11 11 11 12 12 12 12 12 12
4 3 7 9 9 8 6 5 4 6 6 6 4 7 9 8 8 7 7 6 6 6 7 6 6 7 7 7 7 6 7 8 9 9 10 10 11 11 11 11 10 10 11 12 12 12 11 11 11
4 2 6 8 8 9 7 5 5 4 7 6 2 5 8 10 8 7 7 6 6 5 6 5 5 6 6 7 8 7 7 7 8 9 9 10 10 11 10 10 10 10 11 11 12 12 12 11 10
6 1 8 9 8 9 7 6 6 5 7 5 4 6 11 11 9 7 6 6 6 5 4 5 4 5 5 6 8 6 7 6 6 7 8 7 6 7 7 10 11 11 11 11 12 11 11 10 10
3 4 10 7 7 8 6 5 6 6 7 7 8 10 12 11 9 7 6 6 6 5 4 5 4 5 4 5 5 3 3 4 3 3 5 5 5 5 7 10 10 10 11 11 10 9 8 6 6
1 5 6 5 5 6 6 6 5 4 5 6 9 12 12 10 8 7 6 5 6 4 4 5 5 4 4 4 3 2 2 3 3 4 5 6 5 5 5 5 6 7 8 6 8 7 4 4 4
1 3 2 4 5 4 5 5 4 3 6 7 9 12 11 9 8 6 6 5 5 4 4 4 5 4 4 3 3 2 2 2 3 4 5 5 4 4 4 3 4 4 3 4 3 3 5 5 5
1 3 3 4 5 4 5 5 4 6 7 9 11 11 10 8 7 6 5 5 4 4 4 4 4 4 4 3 2 3 3 3 4 4 4 5 4 5 5 3 3 3 3 4 3 4 4 4 4
2 3 4 5 6 4 4 5 4 7 9 10 11 10 9 8 7 6 5 5 4 4 4 5 5 5 4 3 2 2 3 2 3 3 4 4 4 4 4 4 3 3 3 3 3 4 3 3 3
3 4 5 5 5 4 4 5 5 8 10 10 10 9 8 7 7 6 5 5 5 5 4 4 5 5 4 4 3 3 3 3 3 3 4 4 4 5 3 3 3 3 3 4 3 4 3 3 3
6 5 3 5 4 4 7 4 8 9 10 10 9 8 8 7 7 6 6 5 5 5 5 4 4 5 5 4 2 2 2 3 3 3 4 4 4 4 3 3 3 3 3 3 3 3 3 3 2
6 3 1 5 5 4 6 1 8 9 9 9 9 9 8 8 8 7 7 6 6 6 6 5 4 5 5 5 3 3 2 2 2 3 3 4 3 4 3 2 3 3 3 3 3 4 3 3 3
3 3 1 2 4 6 6 2 6 8 9 9 9 9 9 8 8 8 7 7 7 6 6 6 6 5 5 4 3 3 3 2 2 3 3 3 3 4 3 3 4 3 3 3 3 3 3 2 3
5 6 3 1 2 5 5 4 5 9 9 9 9 9 9 8 8 8 8 7 7 7 7 7 6 6 5 3 3 3 3 3 3 3 4 4 3 4 3 2 4 3 3 3 4 3 4 3 2
7 7 4 2 2 4 4 3 4 8 10 9 9 9 9 9 9 9 8 8 8 8 8 8 7 7 6 4 3 2 2 3 3 2 3 3 4 3 4 3 3 3 3 4 4 3 2 2 2
8 7 5 3 3 6 5 5 5 7 9 9 9 9 10 10 10 10 10 9 9 9 9 7 8 7 7 6 4 4 4 3 3 4 3 3 3 3 2 3 2 3 3 3 3 3 3 2 2
9 5 6 5 6 4 5 4 4 7 9 10 11 11 11 11 10 10 11 10 10 9 9 8 8 7 7 6 5 5 4 3 3 3 3 4 3 3 3 3 3 3 3 3 4 4 3 3 3
6 4 6 7 8 7 6 7 3 6 6 8 10 11 11 11 11 11 11 11 10 10 9 9 9 8 8 7 6 5 4 4 3 3 4 3 3 3 4 3 3 3 3 3 3 3 4 4 4
6 6 6 8 9 9 5 7 3 3 4 4 7 9 10 10 11 11 11 10 10 10 9 9 9 9 8 8 7 6 5 4 4 4 4 4 4 4 4 4 4 4 3 4 4 4 5 4 4
11 10 8 9 8 6 4 7 3 0 1 2 4 7 8 10 11 11 11 11 11 11 10 10 10 9 9 8 7 7 6 6 5 5 5 4 4 4 5 5 4 4 4 4 4 4 4 5 5
13 13 10 8 7 5 6 6 2 2 1 2 3 5 7 9 10 11 11 11 11 12 11 11 10 10 9 8 7 6 6 5 4 5 4 4 3 3 4 5 5 5 5 5 4 5 5 4 5
13 13 11 11 10 9 6 5 5 4 4 4 5 5 6 7 9 10 11 11 11 11 11 11 11 10 9 9 8 7 7 6 4 4 5 4 3 4 5 5 5 5 5 5 5 4 4 4 5
11 10 8 11 9 10 8 8 5 6 6 5 4 4 5 6 7 8 9 10 10 10 11 11 10 10 9 9 8 6 7 6 6 5 5 4 4 3 4 5 5 5 5 5 5 5 4 5 4
10 12 11 10 9 10 9 4 2 5 5 4 3 3 4 5 6 7 8 9 10 10 10 10 10 9 8 8 8 7 6 6 6 5 5 5 4 4 4 5 5 5 5 5 5 5 5 5 5
11 12 12 11 10 11 10 4 3 3 4 3 2 3 3 4 5 7 7 8 8 9 10 10 9 9 8 8 7 7 6 6 6 6 5 5 4 4 4 4 5 5 5 4 5 6 6 6 6
Wind_Direction
171 182 208 232 225 87 64 62 60 71 70 62 61 50 52 42 28 64 81 88 86 80 84 95 85 82 85 90 91 96 95 92 91 92 103 104 102 104 111 116 120 120 124 128 130 131 131 131 130
173 187 226 239 359 74 69 61 65 63 78 89 79 68 68 64 56 85 94 93 94 83 82 82 84 83 86 92 94 96 98 95 94 95 97 99 98 101 114 116 118 120 124 128 129 131 132 132 130
178 225 260 271 52 56 67 69 78 85 85 81 81 60 50 61 75 85 91 109 105 88 86 90 89 88 93 95 95 96 98 97 98 100 98 97 97 101 113 115 116 118 123 128 131 134 133 131 131
210 223 232 57 67 61 65 80 93 101 89 76 92 88 76 64 69 90 108 115 106 100 92 91 91 90 93 99 98 95 92 97 102 103 101 101 100 105 112 113 115 116 119 122 127 130 132 132 132
243 254 123 76 72 70 72 79 85 79 82 86 90 95 90 81 91 105 115 113 103 98 93 94 94 89 91 98 98 92 91 93 100 99 99 102 104 108 111 112 114 117 120 122 128 133 133 134 136
242 257 55 69 76 80 87 92 86 81 93 97 101 99 92 111 113 113 111 105 96 95 92 96 110 99 91 96 101 97 95 94 98 97 96 101 106 110 112 114 115 119 122 123 126 131 132 131 136
302 17 60 68 81 87 86 94 81 88 96 90 96 99 110 120 118 119 113 102 93 88 92 96 108 111 109 101 100 103 98 97 102 100 97 102 107 112 115 118 118 121 121 121 123 124 130 129 133
299 304 76 74 74 83 105 108 86 87 87 95 109 102 119 128 134 128 119 110 97 92 93 96 97 103 109 108 108 98 98 98 103 108 106 110 115 120 121 120 117 118 119 121 121 125 127 127 132
262 298 64 62 68 92 121 123 110 100 110 110 87 84 113 131 138 134 125 114 102 92 92 94 96 100 104 104 105 108 112 109 115 116 119 130 121 116 124 108 112 117 118 115 114 117 124 132 134
270 46 62 57 61 94 121 118 126 138 125 119 114 108 125 138 142 138 131 128 122 117 113 105 103 98 100 97 104 109 111 113 106 103 117 120 109 105 106 111 113 116 116 116 114 119 139 158 137
4 46 61 78 78 94 120 120 135 136 115 122 133 136 142 146 147 144 136 129 120 126 116 114 110 112 103 100 105 97 101 109 109 103 107 109 114 118 114 121 128 126 133 130 130 149 143 128 109
83 62 55 87 108 121 112 118 126 90 76 107 130 140 148 154 149 146 138 130 127 129 121 114 120 116 95 89 106 122 115 109 105 104 109 117 116 118 116 120 117 125 125 121 128 118 119 117 117
120 88 92 112 134 120 127 122 112 108 104 118 132 146 153 155 148 142 134 131 133 136 135 119 122 120 120 118 117 109 101 105 104 100 105 116 124 123 120 113 113 118 120 134 126 112 111 115 123
71 114 124 130 123 143 153 130 139 119 131 136 145 154 157 154 153 149 149 148 149 148 141 133 141 134 134 133 126 116 117 109 106 110 110 117 118 117 123 132 129 125 127 110 115 118 125 131 117
184 169 148 145 156 158 193 154 133 134 148 150 154 157 157 158 161 163 160 162 159 156 149 148 148 139 141 144 149 133 131 126 118 112 118 125 127 122 128 130 139 125 126 128 130 129 134 142 136
208 217 160 136 176 171 233 117 126 150 162 160 162 161 166 168 173 171 168 168 161 156 155 162 155 145 147 146 148 131 113 113 120 123 127 124 122 132 139 141 135 135 146 136 135 146 137 137 135
212 245 102 129 180 191 236 101 130 163 172 168 172 172 176 175 182 178 176 174 171 167 167 168 159 154 157 153 159 145 124 118 128 127 130 127 140 143 151 141 124 154 145 145 157 132 142 141 130
248 267 241 150 162 213 231 220 148 175 184 178 178 181 183 185 182 174 173 170 169 169 171 172 168 165 167 165 165 159 144 148 146 138 133 143 155 156 161 157 150 163 149 144 130 129 142 142 143
273 273 268 122 153 230 241 242 182 182 194 189 186 187 189 188 177 173 177 175 172 171 173 176 175 168 176 176 181 172 162 163 153 153 145 155 162 155 172 161 152 172 156 153 151 150 151 155 155
252 259 252 183 175 248 260 248 198 190 200 200 197 192 194 186 176 175 181 180 178 175 177 178 178 175 183 176 181 172 155 161 149 144 142 158 162 170 170 171 182 166 159 165 161 170 178 176 186
240 258 269 258 209 218 252 214 188 183 201 203 207 201 195 193 185 180 183 186 182 179 181 182 181 179 185 181 180 168 161 176 158 162 160 166 170 174 170 168 192 173 192 171 182 193 200 200 197
238 244 263 245 238 223 251 271 164 177 192 202 205 204 199 193 190 186 183 186 185 182 179 181 181 183 184 186 191 186 184 178 167 175 160 163 170 176 175 180 184 195 198 176 204 197 211 212 208
250 232 240 243 249 255 225 265 175 168 200 200 201 203 202 195 190 187 187 185 184 181 178 177 181 183 185 192 189 198 200 187 172 171 159 177 176 190 194 188 192 198 206 201 221 207 224 219 227
204 206 219 234 244 246 245 259 256 174 220 209 191 196 200 195 190 186 184 181 182 180 180 177 177 182 185 190 193 201 203 198 183 179 177 187 183 188 192 194 200 210 213 205 216 221 220 230 234
212 224 227 227 230 238 213 247 258 82 209 209 179 181 189 190 188 185 183 182 184 183 181 179 177 182 185 189 195 199 204 203 201 203 191 200 194 189 185 199 204 213 212 215 220 221 234 228 225
218 235 245 255 256 237 203 237 211 146 145 153 164 166 173 181 185 185 184 184 185 185 183 181 180 183 184 187 192 197 203 210 206 209 216 203 209 199 184 199 206 212 217 219 217 229 224 225 229
223 231 252 256 259 261 231 221 213 190 190 172 166 167 170 176 179 183 183 185 183 184 183 184 182 185 187 188 189 193 199 211 212 204 217 215 209 204 191 204 208 212 215 223 226 235 235 233 235
244 238 235 245 252 259 241 232 220 198 197 185 174 170 168 174 177 176 178 182 181 180 181 184 183 185 187 188 192 190 197 204 212 216 213 224 217 213 208 215 218 220 219 218 225 229 225 237 240
209 220 232 246 253 258 259 236 189 200 200 193 177 172 170 175 174 170 174 178 177 175 177 181 182 184 188 191 192 198 197 202 208 213 218 218 221 217 219 220 223 225 228 224 223 236 227 232 238
232 230 225 234 239 248 264 250 111 176 198 191 177 170 170 171 170 165 163 168 174 175 177 178 182 185 188 189 190 196 199 203 208 210 216 216 217 220 218 221 222 225 228 228 229 239 239 236 238